Location: Paddlesworth
(51.1000°N, 1.1333°E)
Time: 06:48:42
(UTC+00:00)

Cosmos 1470 Rocket - Pass Details

Date: 11 May 2021
Orbit: 603 x 634 km, 82.5° (Epoch: 20 June)

Event Time Altitude Azimuth Distance (km) Brightness Sun altitude
Rises 20:44:02 0° 350° (N) 2,940 8.0 -9.5°
Reaches altitude 10° 20:46:17 10° 352° (N) 2,029 7.1 -9.8°
Maximum altitude 20:50:48 76° 78° (ENE) 659 3.6 -10.3°
Enters shadow 20:55:02 12° 165° (SSE) 1,915 5.5 -10.7°
